^^
Saratoga-Weather Station Historical Data
Daily Summary for August 18, 2022 Units:  Metric    English   Both
Daily Weekly Monthly Yearly Custom
  High: Low: Average:
Temperature: 28.1 °C 18.8 °C 22.7 °C
Dew Point: 17.4 °C 13.4 °C 15.5 °C
Humidity: 83% 42% 66%
Wind Speed: 9.7km/h 0km/h 1.8km/h
Wind Gust: 16.1km/h - -
Wind- - South
Pressure: 1011.9 hPa 1010.2 hPa -
Precipitation: 0.0 mm    
Historical Graphs
 
 
Tabular Data for August 18, 2022
Time Temperature Dew Point Pressure Wind Wind Speed Wind Gust Humidity Rainfall Rate (Hourly) solar
00:01 22.1 °C 15.4 °C 1010.2 hPa WSW 1.4 km/h 4.8 km/h 66% 0.0 mm 0 W/m2
00:06 22.1 °C 15.4 °C 1010.2 hPa WSW 1.4 km/h 1.6 km/h 66% 0.0 mm 0 W/m2
00:11 21.9 °C 15.5 °C 1010.2 hPa WSW 1.4 km/h 1.6 km/h 67% 0.0 mm 0 W/m2
00:16 21.8 °C 15.4 °C 1010.5 hPa WSW 1.4 km/h 3.2 km/h 67% 0.0 mm 0 W/m2
00:21 21.6 °C 15.4 °C 1010.5 hPa Calm   3.2 km/h 68% 0.0 mm 0 W/m2
00:26 21.4 °C 15.2 °C 1010.5 hPa WSW 1.4 km/h 3.2 km/h 68% 0.0 mm 0 W/m2
00:31 21.2 °C 15.3 °C 1010.5 hPa Calm   3.2 km/h 69% 0.0 mm 0 W/m2
00:36 21.1 °C 15.2 °C 1010.5 hPa Calm   1.6 km/h 69% 0.0 mm 0 W/m2
00:41 20.9 °C 15.2 °C 1010.5 hPa Calm   1.6 km/h 70% 0.0 mm 0 W/m2
00:46 20.8 °C 15.3 °C 1010.8 hPa Calm     71% 0.0 mm 0 W/m2
00:51 20.7 °C 15.3 °C 1010.8 hPa Calm   1.6 km/h 71% 0.0 mm 0 W/m2
00:56 20.5 °C 15.3 °C 1010.8 hPa Calm   1.6 km/h 72% 0.0 mm 0 W/m2
01:01 20.4 °C 15.2 °C 1010.8 hPa Calm     72% 0.0 mm 0 W/m2
01:06 20.3 °C 15.3 °C 1010.8 hPa WSW 1.4 km/h 3.2 km/h 73% 0.0 mm 0 W/m2
01:11 20.2 °C 15.2 °C 1010.8 hPa Calm     73% 0.0 mm 0 W/m2
01:16 20.1 °C 15.1 °C 1010.8 hPa Calm     73% 0.0 mm 0 W/m2
01:21 20.1 °C 15.3 °C 1010.8 hPa Calm   1.6 km/h 74% 0.0 mm 0 W/m2
01:26 19.9 °C 15.3 °C 1010.8 hPa Calm     75% 0.0 mm 0 W/m2
01:31 19.9 °C 15.3 °C 1010.8 hPa Calm     75% 0.0 mm 0 W/m2
01:36 19.9 °C 15.3 °C 1010.8 hPa Calm     75% 0.0 mm 0 W/m2
01:41 19.9 °C 15.3 °C 1010.8 hPa Calm     75% 0.0 mm 0 W/m2
01:46 20 °C 15.4 °C 1010.8 hPa Calm     75% 0.0 mm 0 W/m2
01:51 20.1 °C 15.5 °C 1010.8 hPa WSW 1.4 km/h 1.6 km/h 75% 0.0 mm 0 W/m2
01:56 20.1 °C 15.5 °C 1010.5 hPa Calm   1.6 km/h 75% 0.0 mm 0 W/m2
02:01 20 °C 15.4 °C 1010.5 hPa WSW 1.4 km/h 3.2 km/h 75% 0.0 mm 0 W/m2
02:06 19.9 °C 15.3 °C 1010.5 hPa Calm     75% 0.0 mm 0 W/m2
02:11 19.9 °C 15.5 °C 1010.5 hPa Calm     76% 0.0 mm 0 W/m2
02:16 19.8 °C 15.4 °C 1010.5 hPa Calm   1.6 km/h 76% 0.0 mm 0 W/m2
02:21 19.8 °C 15.4 °C 1010.2 hPa Calm   1.6 km/h 76% 0.0 mm 0 W/m2
02:26 19.7 °C 15.6 °C 1010.2 hPa WSW 1.4 km/h 1.6 km/h 77% 0.0 mm 0 W/m2
02:31 19.6 °C 15.5 °C 1010.5 hPa Calm   1.6 km/h 77% 0.0 mm 0 W/m2
02:36 19.5 °C 15.4 °C 1010.5 hPa SW 3.2 km/h 3.2 km/h 77% 0.0 mm 0 W/m2
02:41 19.4 °C 15.5 °C 1010.5 hPa Calm   1.6 km/h 78% 0.0 mm 0 W/m2
02:46 19.3 °C 15.4 °C 1010.5 hPa Calm   1.6 km/h 78% 0.0 mm 0 W/m2
02:51 19.3 °C 15.4 °C 1010.8 hPa Calm     78% 0.0 mm 0 W/m2
02:56 19.2 °C 15.3 °C 1010.8 hPa Calm     78% 0.0 mm 0 W/m2
03:01 19.2 °C 15.5 °C 1010.8 hPa SW 1.4 km/h 1.6 km/h 79% 0.0 mm 0 W/m2
03:06 19.2 °C 15.5 °C 1010.8 hPa Calm   1.6 km/h 79% 0.0 mm 0 W/m2
03:11 19.2 °C 15.5 °C 1010.8 hPa Calm     79% 0.0 mm 0 W/m2
03:16 19.2 °C 15.5 °C 1010.8 hPa Calm     79% 0.0 mm 0 W/m2
03:21 19.1 °C 15.6 °C 1010.8 hPa Calm     80% 0.0 mm 0 W/m2
03:26 19.1 °C 15.6 °C 1010.8 hPa Calm     80% 0.0 mm 0 W/m2
03:31 19.1 °C 15.6 °C 1010.8 hPa Calm     80% 0.0 mm 0 W/m2
03:36 19.1 °C 15.6 °C 1010.8 hPa Calm     80% 0.0 mm 0 W/m2
03:41 19.1 °C 15.6 °C 1011.2 hPa Calm     80% 0.0 mm 0 W/m2
03:46 19.1 °C 15.6 °C 1011.2 hPa Calm     80% 0.0 mm 0 W/m2
03:51 19.1 °C 15.8 °C 1011.2 hPa Calm     81% 0.0 mm 0 W/m2
03:56 19.1 °C 15.8 °C 1011.2 hPa Calm     81% 0.0 mm 0 W/m2
04:01 19.2 °C 15.9 °C 1011.2 hPa Calm     81% 0.0 mm 0 W/m2
04:06 19.2 °C 15.7 °C 1011.2 hPa Calm     80% 0.0 mm 0 W/m2
04:11 19.2 °C 15.7 °C 1011.2 hPa Calm     80% 0.0 mm 0 W/m2
04:16 19.1 °C 15.6 °C 1010.8 hPa Calm     80% 0.0 mm 0 W/m2
04:21 19.1 °C 15.8 °C 1010.8 hPa SW 1.4 km/h 3.2 km/h 81% 0.0 mm 0 W/m2
04:27 19.1 °C 15.8 °C 1010.8 hPa Calm     81% 0.0 mm 0 W/m2
04:32 19 °C 15.7 °C 1010.8 hPa Calm   1.6 km/h 81% 0.0 mm 0 W/m2
04:37 18.9 °C 15.6 °C 1010.8 hPa Calm     81% 0.0 mm 0 W/m2
04:42 18.9 °C 15.6 °C 1010.8 hPa SW 3.2 km/h 3.2 km/h 81% 0.0 mm 0 W/m2
04:47 18.8 °C 15.7 °C 1010.8 hPa Calm   1.6 km/h 82% 0.0 mm 0 W/m2
04:52 18.8 °C 15.7 °C 1010.8 hPa SW 1.4 km/h 3.2 km/h 82% 0.0 mm 0 W/m2
04:57 18.8 °C 15.7 °C 1010.8 hPa SW 1.4 km/h 3.2 km/h 82% 0.0 mm 0 W/m2
05:02 18.8 °C 15.7 °C 1010.8 hPa SW 1.4 km/h 3.2 km/h 82% 0.0 mm 0 W/m2
05:07 18.8 °C 15.7 °C 1010.8 hPa SW 1.4 km/h 1.6 km/h 82% 0.0 mm 0 W/m2
05:12 18.9 °C 15.8 °C 1010.8 hPa Calm   1.6 km/h 82% 0.0 mm 0 W/m2
05:17 18.9 °C 15.6 °C 1010.8 hPa Calm     81% 0.0 mm 0 W/m2
05:22 18.9 °C 15.6 °C 1010.8 hPa Calm     81% 0.0 mm 0 W/m2
05:27 19 °C 15.7 °C 1010.8 hPa Calm     81% 0.0 mm 0 W/m2
05:32 19 °C 15.7 °C 1010.8 hPa Calm     81% 0.0 mm 0 W/m2
05:37 19 °C 15.7 °C 1010.8 hPa Calm     81% 0.0 mm 0 W/m2
05:42 19 °C 15.7 °C 1010.8 hPa Calm     81% 0.0 mm 0 W/m2
05:47 19 °C 15.7 °C 1010.8 hPa Calm     81% 0.0 mm 0 W/m2
05:52 19 °C 15.7 °C 1010.8 hPa Calm     81% 0.0 mm 0 W/m2
05:57 19 °C 15.9 °C 1010.8 hPa Calm   3.2 km/h 82% 0.0 mm 0 W/m2
06:02 19 °C 15.7 °C 1010.8 hPa Calm     81% 0.0 mm 0 W/m2
06:07 19.1 °C 16 °C 1010.8 hPa Calm     82% 0.0 mm 0 W/m2
06:12 19.1 °C 15.8 °C 1010.8 hPa Calm     81% 0.0 mm 0 W/m2
06:17 19.1 °C 15.8 °C 1010.8 hPa Calm     81% 0.0 mm 0 W/m2
06:22 19.1 °C 16 °C 1011.2 hPa SW 3.2 km/h 3.2 km/h 82% 0.0 mm 0 W/m2
06:27 19.1 °C 15.8 °C 1011.2 hPa Calm     81% 0.0 mm 0 W/m2
06:32 19.1 °C 16 °C 1011.2 hPa Calm     82% 0.0 mm 0 W/m2
06:37 19.1 °C 16 °C 1011.2 hPa Calm   1.6 km/h 82% 0.0 mm 0 W/m2
06:42 19.1 °C 16 °C 1011.2 hPa Calm     82% 0.0 mm 0 W/m2
06:47 19.1 °C 15.8 °C 1011.2 hPa Calm   1.6 km/h 81% 0.0 mm 0 W/m2
06:52 19 °C 15.7 °C 1011.2 hPa Calm   1.6 km/h 81% 0.0 mm 5 W/m2
06:57 19.1 °C 16 °C 1011.2 hPa Calm     82% 0.0 mm 7 W/m2
07:02 19.1 °C 15.8 °C 1011.5 hPa Calm     81% 0.0 mm 9 W/m2
07:07 19.1 °C 15.8 °C 1011.5 hPa Calm     81% 0.0 mm 9 W/m2
07:12 19.2 °C 16.1 °C 1011.2 hPa Calm     82% 0.0 mm 11 W/m2
07:17 19.2 °C 16.1 °C 1011.2 hPa SSW 1.4 km/h 3.2 km/h 82% 0.0 mm 12 W/m2
07:22 19.2 °C 16.1 °C 1011.5 hPa Calm     82% 0.0 mm 14 W/m2
07:27 19.2 °C 16.1 °C 1011.5 hPa Calm   3.2 km/h 82% 0.0 mm 14 W/m2
07:32 19.2 °C 16.1 °C 1011.5 hPa SSW 1.4 km/h 1.6 km/h 82% 0.0 mm 16 W/m2
07:37 19.2 °C 16.1 °C 1011.2 hPa WSW 1.4 km/h 3.2 km/h 82% 0.0 mm 19 W/m2
07:42 19.2 °C 16.1 °C 1011.5 hPa Calm   1.6 km/h 82% 0.0 mm 23 W/m2
07:47 19.2 °C 16.1 °C 1011.2 hPa West 3.2 km/h 3.2 km/h 82% 0.0 mm 23 W/m2
07:52 19.2 °C 16.1 °C 1011.2 hPa Calm   1.6 km/h 82% 0.0 mm 25 W/m2
07:57 19.1 °C 16 °C 1011.5 hPa Calm   1.6 km/h 82% 0.0 mm 25 W/m2
08:02 19.1 °C 16 °C 1011.5 hPa Calm     82% 0.0 mm 26 W/m2
08:07 19.1 °C 16 °C 1011.5 hPa Calm     82% 0.0 mm 30 W/m2
08:12 19.1 °C 16 °C 1011.5 hPa Calm     82% 0.0 mm 37 W/m2
08:17 19.2 °C 16.2 °C 1011.5 hPa Calm     83% 0.0 mm 46 W/m2
08:22 19.2 °C 16.1 °C 1011.2 hPa Calm     82% 0.0 mm 58 W/m2
08:27 19.3 °C 16 °C 1011.2 hPa Calm   3.2 km/h 81% 0.0 mm 60 W/m2
08:32 19.4 °C 16.1 °C 1011.2 hPa Calm   1.6 km/h 81% 0.0 mm 62 W/m2
08:37 19.5 °C 16.2 °C 1011.2 hPa West 1.4 km/h 1.6 km/h 81% 0.0 mm 54 W/m2
08:42 19.6 °C 16.2 °C 1011.2 hPa Calm     81% 0.0 mm 42 W/m2
08:47 19.6 °C 16.1 °C 1011.2 hPa Calm   1.6 km/h 80% 0.0 mm 40 W/m2
08:52 19.7 °C 16.2 °C 1011.2 hPa West 1.4 km/h 3.2 km/h 80% 0.0 mm 46 W/m2
08:57 19.7 °C 16.2 °C 1011.2 hPa Calm     80% 0.0 mm 54 W/m2
09:02 19.7 °C 16.2 °C 1011.2 hPa Calm     80% 0.0 mm 65 W/m2
09:07 19.8 °C 16.2 °C 1011.2 hPa West 1.4 km/h 3.2 km/h 80% 0.0 mm 69 W/m2
09:12 19.8 °C 16.2 °C 1011.2 hPa Calm   1.6 km/h 80% 0.0 mm 70 W/m2
09:17 19.9 °C 16.1 °C 1011.5 hPa NW 3.2 km/h 4.8 km/h 79% 0.0 mm 77 W/m2
09:22 20 °C 16.2 °C 1011.5 hPa Calm   1.6 km/h 79% 0.0 mm 88 W/m2
09:27 20.1 °C 16.1 °C 1011.5 hPa NW 3.2 km/h 4.8 km/h 78% 0.0 mm 91 W/m2
09:32 20.1 °C 16.1 °C 1011.5 hPa Calm   1.6 km/h 78% 0.0 mm 90 W/m2
09:37 20.2 °C 16.4 °C 1011.5 hPa WNW 3.2 km/h 4.8 km/h 79% 0.0 mm 84 W/m2
09:42 20.2 °C 16.2 °C 1011.5 hPa WNW 3.2 km/h 4.8 km/h 78% 0.0 mm 81 W/m2
09:47 20.2 °C 16.2 °C 1011.5 hPa WNW 1.4 km/h 3.2 km/h 78% 0.0 mm 83 W/m2
09:52 20.2 °C 16.2 °C 1011.5 hPa NE 3.2 km/h 4.8 km/h 78% 0.0 mm 95 W/m2
09:57 20.3 °C 16.5 °C 1011.5 hPa SE 1.4 km/h 3.2 km/h 79% 0.0 mm 142 W/m2
10:02 20.4 °C 16.4 °C 1011.5 hPa Calm   4.8 km/h 78% 0.0 mm 221 W/m2
10:07 20.6 °C 16.4 °C 1011.5 hPa Calm   3.2 km/h 77% 0.0 mm 225 W/m2
10:12 20.8 °C 16.6 °C 1011.5 hPa ESE 1.4 km/h 3.2 km/h 77% 0.0 mm 234 W/m2
10:17 20.9 °C 16.5 °C 1011.5 hPa ESE 1.4 km/h 3.2 km/h 76% 0.0 mm 243 W/m2
10:22 21.1 °C 16.7 °C 1011.5 hPa Calm   1.6 km/h 76% 0.0 mm 220 W/m2
10:27 21.3 °C 16.7 °C 1011.5 hPa NNE 1.4 km/h 4.8 km/h 75% 0.0 mm 188 W/m2
10:32 21.5 °C 16.9 °C 1011.2 hPa East 1.4 km/h 4.8 km/h 75% 0.0 mm 181 W/m2
10:37 21.5 °C 16.9 °C 1011.2 hPa ENE 4.7 km/h 6.4 km/h 75% 0.0 mm 207 W/m2
10:42 21.6 °C 16.8 °C 1011.5 hPa ENE 6.4 km/h 6.4 km/h 74% 0.0 mm 221 W/m2
10:47 21.6 °C 16.8 °C 1011.5 hPa ENE 3.2 km/h 3.2 km/h 74% 0.0 mm 246 W/m2
10:52 21.7 °C 16.9 °C 1011.5 hPa ESE 4.7 km/h 4.8 km/h 74% 0.0 mm 253 W/m2
10:57 21.8 °C 17 °C 1011.5 hPa Calm   11.3 km/h 74% 0.0 mm 278 W/m2
11:02 21.9 °C 17.1 °C 1011.5 hPa ENE 3.2 km/h 6.4 km/h 74% 0.0 mm 292 W/m2
11:07 22.1 °C 17.2 °C 1011.9 hPa East 3.2 km/h 3.2 km/h 74% 0.0 mm 283 W/m2
11:12 22.2 °C 17.1 °C 1011.9 hPa ENE 6.4 km/h 11.3 km/h 73% 0.0 mm 403 W/m2
11:17 22.4 °C 17.3 °C 1011.9 hPa ENE 1.4 km/h 4.8 km/h 73% 0.0 mm 478 W/m2
11:22 22.7 °C 17.2 °C 1011.9 hPa ENE 3.2 km/h 8 km/h 71% 0.0 mm 348 W/m2
11:27 22.7 °C 17.2 °C 1011.9 hPa East 1.4 km/h 3.2 km/h 71% 0.0 mm 406 W/m2
11:32 22.7 °C 17.2 °C 1011.9 hPa East 3.2 km/h 6.4 km/h 71% 0.0 mm 283 W/m2
11:37 22.7 °C 17.2 °C 1011.9 hPa East 4.7 km/h 6.4 km/h 71% 0.0 mm 265 W/m2
11:42 22.7 °C 17.2 °C 1011.9 hPa ESE 1.4 km/h 3.2 km/h 71% 0.0 mm 267 W/m2
11:47 22.7 °C 16.9 °C 1011.5 hPa Calm   6.4 km/h 70% 0.0 mm 299 W/m2
11:52 22.8 °C 17 °C 1011.5 hPa NE 1.4 km/h 4.8 km/h 70% 0.0 mm 327 W/m2
11:57 22.9 °C 17.1 °C 1011.2 hPa Calm   3.2 km/h 70% 0.0 mm 380 W/m2
12:02 23.1 °C 17.3 °C 1011.2 hPa ESE 1.4 km/h 6.4 km/h 70% 0.0 mm 376 W/m2
12:07 23.4 °C 17.4 °C 1011.2 hPa ESE 3.2 km/h 6.4 km/h 69% 0.0 mm 383 W/m2
12:12 23.7 °C 17.4 °C 1010.8 hPa East 6.4 km/h 12.9 km/h 68% 0.0 mm 485 W/m2
12:17 23.8 °C 17.3 °C 1011.2 hPa East 1.4 km/h 6.4 km/h 67% 0.0 mm 322 W/m2
12:22 23.9 °C 17.4 °C 1011.2 hPa SSW 1.4 km/h 4.8 km/h 67% 0.0 mm 346 W/m2
12:27 23.9 °C 17.4 °C 1010.8 hPa ESE 1.4 km/h 3.2 km/h 67% 0.0 mm 452 W/m2
12:32 24.1 °C 17.3 °C 1010.8 hPa ENE 4.7 km/h 6.4 km/h 66% 0.0 mm 366 W/m2
12:37 24.2 °C 17.2 °C 1011.2 hPa NE 3.2 km/h 11.3 km/h 65% 0.0 mm 269 W/m2
12:42 24.1 °C 17.1 °C 1011.2 hPa East 6.4 km/h 8 km/h 65% 0.0 mm 220 W/m2
12:47 24.1 °C 17.1 °C 1011.2 hPa East 3.2 km/h 6.4 km/h 65% 0.0 mm 207 W/m2
12:52 24 °C 17 °C 1011.5 hPa ENE 3.2 km/h 8 km/h 65% 0.0 mm 197 W/m2
12:58 23.9 °C 16.9 °C 1011.5 hPa ENE 3.2 km/h 8 km/h 65% 0.0 mm 171 W/m2
13:03 23.8 °C 16.8 °C 1011.5 hPa Calm   4.8 km/h 65% 0.0 mm 167 W/m2
13:08 23.8 °C 16.6 °C 1011.5 hPa Calm   8 km/h 64% 0.0 mm 206 W/m2
13:13 23.7 °C 16.5 °C 1011.9 hPa NNE 3.2 km/h 6.4 km/h 64% 0.0 mm 207 W/m2
13:18 23.7 °C 16.5 °C 1011.5 hPa ENE 4.7 km/h 4.8 km/h 64% 0.0 mm 264 W/m2
13:23 23.8 °C 16.6 °C 1011.5 hPa ESE 3.2 km/h 6.4 km/h 64% 0.0 mm 330 W/m2
13:28 23.9 °C 16.4 °C 1011.5 hPa East 4.7 km/h 8 km/h 63% 0.0 mm 287 W/m2
13:33 23.9 °C 16.4 °C 1011.2 hPa ENE 4.7 km/h 4.8 km/h 63% 0.0 mm 329 W/m2
13:38 24.1 °C 16.9 °C 1011.2 hPa ENE 1.4 km/h 4.8 km/h 64% 0.0 mm 350 W/m2
13:43 24.3 °C 16.8 °C 1011.2 hPa East 4.7 km/h 6.4 km/h 63% 0.0 mm 420 W/m2
13:48 24.4 °C 16.9 °C 1011.2 hPa Calm   8 km/h 63% 0.0 mm 626 W/m2
13:53 24.7 °C 17.2 °C 1011.2 hPa NNW 1.4 km/h 8 km/h 63% 0.0 mm 454 W/m2
13:58 24.8 °C 16.8 °C 1010.8 hPa NNW 4.7 km/h 6.4 km/h 61% 0.0 mm 715 W/m2
14:03 24.9 °C 16.9 °C 1010.8 hPa SE 4.7 km/h 8 km/h 61% 0.0 mm 649 W/m2
14:08 25.1 °C 16.3 °C 1010.8 hPa WSW 3.2 km/h 4.8 km/h 58% 0.0 mm 668 W/m2
14:13 25.4 °C 16.8 °C 1010.8 hPa NE 1.4 km/h 12.9 km/h 59% 0.0 mm 671 W/m2
14:18 25.6 °C 16.7 °C 1010.8 hPa ESE 4.7 km/h 6.4 km/h 58% 0.0 mm 657 W/m2
14:23 25.7 °C 16.3 °C 1010.8 hPa East 3.2 km/h 11.3 km/h 56% 0.0 mm 675 W/m2
14:28 25.9 °C 16.2 °C 1010.8 hPa North 3.2 km/h 6.4 km/h 55% 0.0 mm 752 W/m2
14:33 26.1 °C 15.5 °C 1010.8 hPa ESE 6.4 km/h 8 km/h 52% 0.0 mm 735 W/m2
14:38 26.3 °C 15.7 °C 1010.8 hPa WNW 6.4 km/h 6.4 km/h 52% 0.0 mm 694 W/m2
14:43 26.4 °C 15.8 °C 1010.8 hPa SSE 4.7 km/h 6.4 km/h 52% 0.0 mm 812 W/m2
14:48 26.6 °C 15.6 °C 1010.8 hPa ESE 6.4 km/h 11.3 km/h 51% 0.0 mm 872 W/m2
14:53 26.7 °C 15.4 °C 1010.8 hPa Calm   4.8 km/h 50% 0.0 mm 886 W/m2
14:58 26.7 °C 15.4 °C 1010.8 hPa Calm   3.2 km/h 50% 0.0 mm 700 W/m2
15:03 26.9 °C 15.3 °C 1010.8 hPa ENE 3.2 km/h 8 km/h 49% 0.0 mm 540 W/m2
15:08 27.1 °C 15.1 °C 1010.8 hPa ENE 7.9 km/h 8 km/h 48% 0.0 mm 418 W/m2
15:13 27.1 °C 14.1 °C 1010.8 hPa East 1.4 km/h 6.4 km/h 45% 0.0 mm 773 W/m2
15:18 27.1 °C 14.5 °C 1010.8 hPa NW 1.4 km/h 4.8 km/h 46% 0.0 mm 480 W/m2
15:23 26.9 °C 14.3 °C 1010.8 hPa SE 4.7 km/h 12.9 km/h 46% 0.0 mm 561 W/m2
15:28 26.9 °C 14.3 °C 1010.8 hPa Calm   4.8 km/h 46% 0.0 mm 469 W/m2
15:33 27.1 °C 14.1 °C 1010.8 hPa NNW 1.4 km/h 3.2 km/h 45% 0.0 mm 346 W/m2
15:38 27.1 °C 14.5 °C 1010.8 hPa NNW 3.2 km/h 4.8 km/h 46% 0.0 mm 359 W/m2
15:43 27 °C 14.4 °C 1010.8 hPa SW 3.2 km/h 4.8 km/h 46% 0.0 mm 462 W/m2
15:48 26.9 °C 14.3 °C 1010.8 hPa West 4.7 km/h 4.8 km/h 46% 0.0 mm 476 W/m2
15:53 26.9 °C 14.6 °C 1010.8 hPa ENE 3.2 km/h 8 km/h 47% 0.0 mm 547 W/m2
15:58 27.1 °C 14.5 °C 1010.5 hPa NE 1.4 km/h 9.7 km/h 46% 0.0 mm 568 W/m2
16:03 27.3 °C 14.3 °C 1010.5 hPa NNW 3.2 km/h 6.4 km/h 45% 0.0 mm 343 W/m2
16:08 27.4 °C 14.1 °C 1010.5 hPa NW 1.4 km/h 6.4 km/h 44% 0.0 mm 434 W/m2
16:13 27.6 °C 13.9 °C 1010.5 hPa SE 3.2 km/h 8 km/h 43% 0.0 mm 585 W/m2
16:18 27.7 °C 14 °C 1010.5 hPa NE 7.9 km/h 14.5 km/h 43% 0.0 mm 580 W/m2
16:23 27.6 °C 13.5 °C 1010.5 hPa East 7.9 km/h 8 km/h 42% 0.0 mm 582 W/m2
16:28 27.5 °C 13.4 °C 1010.5 hPa SSE 1.4 km/h 14.5 km/h 42% 0.0 mm 577 W/m2
16:33 27.7 °C 13.6 °C 1010.5 hPa ENE 1.4 km/h 4.8 km/h 42% 0.0 mm 610 W/m2
16:38 27.8 °C 13.7 °C 1010.2 hPa WNW 1.4 km/h 6.4 km/h 42% 0.0 mm 603 W/m2
16:43 28.1 °C 14 °C 1010.2 hPa East 9.7 km/h 11.3 km/h 42% 0.0 mm 629 W/m2
16:48 27.9 °C 13.8 °C 1010.2 hPa North 1.4 km/h 11.3 km/h 42% 0.0 mm 575 W/m2
16:53 27.8 °C 13.7 °C 1010.2 hPa ENE 7.9 km/h 9.7 km/h 42% 0.0 mm 668 W/m2
16:58 27.7 °C 14 °C 1010.2 hPa SE 4.7 km/h 6.4 km/h 43% 0.0 mm 575 W/m2
17:03 27.9 °C 14.2 °C 1010.2 hPa East 3.2 km/h 4.8 km/h 43% 0.0 mm 529 W/m2
17:08 28.1 °C 14.3 °C 1010.2 hPa NNE 1.4 km/h 4.8 km/h 43% 0.0 mm 513 W/m2
17:13 28.1 °C 14.3 °C 1010.2 hPa North 1.4 km/h 9.7 km/h 43% 0.0 mm 285 W/m2
17:18 27.8 °C 14.1 °C 1010.2 hPa ENE 4.7 km/h 8 km/h 43% 0.0 mm 237 W/m2
17:23 27.7 °C 14.3 °C 1010.2 hPa NW 3.2 km/h 4.8 km/h 44% 0.0 mm 315 W/m2
17:28 27.6 °C 14.2 °C 1010.2 hPa ENE 3.2 km/h 8 km/h 44% 0.0 mm 301 W/m2
17:33 27.5 °C 14.5 °C 1010.5 hPa SSW 1.4 km/h 4.8 km/h 45% 0.0 mm 267 W/m2
17:38 27.6 °C 14.6 °C 1010.2 hPa East 6.4 km/h 6.4 km/h 45% 0.0 mm 209 W/m2
17:43 27.4 °C 14.4 °C 1010.5 hPa NE 3.2 km/h 9.7 km/h 45% 0.0 mm 192 W/m2
17:48 27.2 °C 13.9 °C 1010.5 hPa NE 3.2 km/h 11.3 km/h 44% 0.0 mm 162 W/m2
17:53 26.9 °C 13.6 °C 1010.2 hPa East 3.2 km/h 4.8 km/h 44% 0.0 mm 149 W/m2
17:58 26.8 °C 13.5 °C 1010.2 hPa NE 1.4 km/h 9.7 km/h 44% 0.0 mm 160 W/m2
18:03 26.8 °C 14.2 °C 1010.2 hPa Calm   3.2 km/h 46% 0.0 mm 186 W/m2
18:08 26.8 °C 13.9 °C 1010.2 hPa East 1.4 km/h 4.8 km/h 45% 0.0 mm 167 W/m2
18:13 26.8 °C 14.2 °C 1010.2 hPa ENE 3.2 km/h 4.8 km/h 46% 0.0 mm 155 W/m2
18:18 26.7 °C 13.8 °C 1010.2 hPa ESE 1.4 km/h 6.4 km/h 45% 0.0 mm 134 W/m2
18:23 26.7 °C 13.8 °C 1010.2 hPa NE 3.2 km/h 4.8 km/h 45% 0.0 mm 127 W/m2
18:28 26.7 °C 13.8 °C 1010.2 hPa NE 3.2 km/h 3.2 km/h 45% 0.0 mm 125 W/m2
18:33 26.6 °C 14 °C 1010.2 hPa ENE 3.2 km/h 4.8 km/h 46% 0.0 mm 128 W/m2
18:38 26.6 °C 14 °C 1010.2 hPa ESE 3.2 km/h 4.8 km/h 46% 0.0 mm 139 W/m2
18:43 26.5 °C 13.9 °C 1010.2 hPa SE 1.4 km/h 4.8 km/h 46% 0.0 mm 134 W/m2
18:48 26.6 °C 14 °C 1010.2 hPa Calm     46% 0.0 mm 120 W/m2
18:53 26.6 °C 14.4 °C 1010.2 hPa Calm   3.2 km/h 47% 0.0 mm 113 W/m2
18:58 26.7 °C 14.5 °C 1010.2 hPa Calm     47% 0.0 mm 107 W/m2
19:03 26.7 °C 14.5 °C 1010.2 hPa Calm     47% 0.0 mm 98 W/m2
19:08 26.8 °C 14.5 °C 1010.2 hPa ENE 1.4 km/h 1.6 km/h 47% 0.0 mm 98 W/m2
19:13 26.7 °C 14.1 °C 1010.2 hPa NE 3.2 km/h 3.2 km/h 46% 0.0 mm 97 W/m2
19:18 26.7 °C 14.1 °C 1010.2 hPa Calm     46% 0.0 mm 88 W/m2
19:23 26.7 °C 14.5 °C 1010.2 hPa Calm     47% 0.0 mm 81 W/m2
19:28 26.6 °C 14.7 °C 1010.2 hPa East 4.7 km/h 4.8 km/h 48% 0.0 mm 76 W/m2
19:33 26.6 °C 14.7 °C 1010.2 hPa Calm   1.6 km/h 48% 0.0 mm 60 W/m2
19:38 26.5 °C 14.6 °C 1010.2 hPa ESE 4.8 km/h 4.8 km/h 48% 0.0 mm 51 W/m2
19:43 26.4 °C 15.1 °C 1010.2 hPa ESE 1.4 km/h 1.6 km/h 50% 0.0 mm 49 W/m2
19:48 26.4 °C 15.1 °C 1010.2 hPa Calm   1.6 km/h 50% 0.0 mm 49 W/m2
19:53 26.3 °C 15 °C 1010.2 hPa ESE 1.4 km/h 3.2 km/h 50% 0.0 mm 49 W/m2
19:58 26.2 °C 15.6 °C 1010.2 hPa Calm     52% 0.0 mm 42 W/m2
20:03 26.1 °C 15.2 °C 1010.2 hPa Calm     51% 0.0 mm 32 W/m2
20:08 25.9 °C 15.6 °C 1010.2 hPa Calm     53% 0.0 mm 28 W/m2
20:13 25.8 °C 15.2 °C 1010.2 hPa Calm   1.6 km/h 52% 0.0 mm 19 W/m2
20:18 25.7 °C 15.4 °C 1010.2 hPa Calm   1.6 km/h 53% 0.0 mm 12 W/m2
20:23 25.6 °C 15 °C 1010.2 hPa Calm   1.6 km/h 52% 0.0 mm 7 W/m2
20:28 25.5 °C 14.6 °C 1010.2 hPa WSW 1.4 km/h 4.8 km/h 51% 0.0 mm 7 W/m2
20:33 25.4 °C 14.8 °C 1010.2 hPa WSW 3.2 km/h 4.8 km/h 52% 0.0 mm 12 W/m2
20:38 25.3 °C 14.7 °C 1010.5 hPa WSW 3.2 km/h 4.8 km/h 52% 0.0 mm 9 W/m2
20:43 25.3 °C 14.7 °C 1010.5 hPa West 1.4 km/h 3.2 km/h 52% 0.0 mm 7 W/m2
20:48 25.2 °C 14.9 °C 1010.5 hPa WSW 4.7 km/h 6.4 km/h 53% 0.0 mm 5 W/m2
20:53 25.2 °C 15.2 °C 1010.5 hPa NW 4.7 km/h 9.7 km/h 54% 0.0 mm 0 W/m2
20:59 25.3 °C 15.9 °C 1010.5 hPa WNW 3.2 km/h 12.9 km/h 56% 0.0 mm 0 W/m2
21:04 25.3 °C 15.9 °C 1010.5 hPa NW 6.4 km/h 14.5 km/h 56% 0.0 mm 0 W/m2
21:09 25.3 °C 15.6 °C 1010.5 hPa WSW 3.2 km/h 6.4 km/h 55% 0.0 mm 0 W/m2
21:14 25.2 °C 15.5 °C 1010.5 hPa West 4.7 km/h 11.3 km/h 55% 0.0 mm 0 W/m2
21:19 25.1 °C 15.4 °C 1010.5 hPa WNW 6.4 km/h 8 km/h 55% 0.0 mm 0 W/m2
21:24 24.9 °C 15.2 °C 1010.5 hPa West 4.7 km/h 11.3 km/h 55% 0.0 mm 0 W/m2
21:29 24.8 °C 14.9 °C 1010.8 hPa NNW 4.7 km/h 12.9 km/h 54% 0.0 mm 0 W/m2
21:34 24.8 °C 14.9 °C 1010.8 hPa WNW 3.2 km/h 11.3 km/h 54% 0.0 mm 0 W/m2
21:39 24.7 °C 15.1 °C 1010.8 hPa NW 1.4 km/h 6.4 km/h 55% 0.0 mm 0 W/m2
21:44 24.6 °C 15 °C 1010.8 hPa West 3.2 km/h 16.1 km/h 55% 0.0 mm 0 W/m2
21:49 24.4 °C 15.1 °C 1010.8 hPa NW 1.4 km/h 9.7 km/h 56% 0.0 mm 0 W/m2
21:54 24.3 °C 15 °C 1010.8 hPa West 4.7 km/h 14.5 km/h 56% 0.0 mm 0 W/m2
21:59 24.2 °C 14.9 °C 1010.8 hPa West 6.4 km/h 12.9 km/h 56% 0.0 mm 0 W/m2
22:04 24.1 °C 15 °C 1010.8 hPa West 4.7 km/h 12.9 km/h 57% 0.0 mm 0 W/m2
22:09 24 °C 15 °C 1010.8 hPa NNW 1.4 km/h 6.4 km/h 57% 0.0 mm 0 W/m2
22:14 23.9 °C 15.1 °C 1010.8 hPa WSW 4.7 km/h 6.4 km/h 58% 0.0 mm 0 W/m2
22:19 23.9 °C 15.1 °C 1010.8 hPa NW 6.4 km/h 6.4 km/h 58% 0.0 mm 0 W/m2
22:24 23.8 °C 15 °C 1010.8 hPa West 1.4 km/h 4.8 km/h 58% 0.0 mm 0 W/m2
22:29 23.8 °C 15.3 °C 1010.8 hPa Calm   3.2 km/h 59% 0.0 mm 0 W/m2
22:34 23.7 °C 15.2 °C 1010.8 hPa NNW 1.4 km/h 8 km/h 59% 0.0 mm 0 W/m2
22:39 23.7 °C 15.2 °C 1010.8 hPa West 4.7 km/h 6.4 km/h 59% 0.0 mm 0 W/m2
22:44 23.6 °C 15.1 °C 1010.8 hPa West 3.2 km/h 8 km/h 59% 0.0 mm 0 W/m2
22:49 23.5 °C 15.3 °C 1010.8 hPa WSW 6.4 km/h 9.7 km/h 60% 0.0 mm 0 W/m2
22:54 23.4 °C 15.2 °C 1011.2 hPa West 3.2 km/h 11.3 km/h 60% 0.0 mm 0 W/m2
22:59 23.3 °C 15.1 °C 1011.2 hPa West 6.4 km/h 11.3 km/h 60% 0.0 mm 0 W/m2
23:04 23.2 °C 15.3 °C 1011.2 hPa WNW 1.4 km/h 4.8 km/h 61% 0.0 mm 0 W/m2
23:09 23.2 °C 15.3 °C 1011.2 hPa WNW 1.4 km/h 1.6 km/h 61% 0.0 mm 0 W/m2
23:14 23.1 °C 15.2 °C 1011.2 hPa WNW 3.2 km/h 3.2 km/h 61% 0.0 mm 0 W/m2
23:19 22.9 °C 15.2 °C 1011.2 hPa WNW 1.4 km/h 1.6 km/h 62% 0.0 mm 0 W/m2
23:24 22.8 °C 15.4 °C 1011.2 hPa Calm   1.6 km/h 63% 0.0 mm 0 W/m2
23:29 22.6 °C 15.4 °C 1011.2 hPa Calm   1.6 km/h 64% 0.0 mm 0 W/m2
23:34 22.4 °C 15.3 °C 1011.2 hPa WNW 1.4 km/h 3.2 km/h 64% 0.0 mm 0 W/m2
23:39 22.2 °C 15.3 °C 1011.2 hPa WNW 1.4 km/h 3.2 km/h 65% 0.0 mm 0 W/m2
23:44 22 °C 15.4 °C 1011.5 hPa WNW 1.4 km/h 1.6 km/h 66% 0.0 mm 0 W/m2
23:49 21.8 °C 15.2 °C 1011.5 hPa Calm   1.6 km/h 66% 0.0 mm 0 W/m2
23:54 21.8 °C 15.4 °C 1011.9 hPa Calm     67% 0.0 mm 0 W/m2
23:59 21.7 °C 15.3 °C 1011.9 hPa Calm     67% 0.0 mm 0 W/m2
Juneau County Weather
Compliments of Weather Underground - 4 mb